Tracking 29892 objects as of 21-Nov-2024
HD Live streaming from Space Station
objects crossing your sky now

STARLINK-30931

Track STARLINK-30931 now!
10-day predictions
STARLINK-30931 is classified as:


NORAD ID: 58413
Int'l Code: 2023-180M
Perigee: 565.2 km
Apogee: 567.2 km
Inclination: 43.0 °
Period: 95.8 minutes
Semi major axis: 6937 km
RCS: Unknown
Launch date: November 22, 2023
Source: United States (US)
Launch site: AIR FORCE EASTERN TEST RANGE (AFETR)
Your satellite tracking list
Your tracking list is empty




NASA's NSSDC Master Catalog

Two Line Element Set (TLE):
1 58413U 23180M   24325.85849875 -.00000368  00000-0 -12130-4 0  9995
2 58413  43.0020  98.2646 0001387 295.8537  64.2162 15.02538619 56456
Source of the keplerian elements: AFSPC